Location: Celina Division
(33.3022°N, 96.7580°W)
Time: 00:35:17
(UTC+00:00)

SL-27 R/B - Visible Passes

Search period start: 28 June 2022 00:00
Search period end: 08 July 2022 00:00
Orbit: 411 x 457 km, 74.7° (Epoch: 27 June)

Date Brightness Start Highest point End Pass type
(mag) Time Alt. Az. Time Alt. Az. Time Alt. Az.
28 Jun 4.8 09:02:45 14° NW 09:02:45 14° NW 09:03:39 10° NNW visible
29 Jun 4.9 08:22:36 18° N 08:22:36 18° N 08:23:37 10° N visible
30 Jun 5.6 07:42:25 13° NNE 07:42:25 13° NNE 07:42:52 10° NNE visible
02 Jul 5.6 07:55:16 12° N 07:55:16 12° N 07:55:32 10° N visible
